Jackpot

Texas Poker Multi Jackpot System

Kini Telah hadir Jackpot SUPER ROYAL FLUSH

Kini Telah hadir Jackpot 2000 (khusus table VIP keatas).

Ikutilah global jackpot yang tersedia di system kami, dengan system jackpot terbaru dan pertama di indonesia, anda dapat membeli jackpot dengan harga 100 rupiah saja dan menangkan hadiahnya hingga puluhan juta rupiah.

Jackpot bukanlah suatu keharusan untuk dibeli, namun kami memberikan suatu fitur tambahan untuk member tercinta dari www.isopoker.com.

Terdapat tiga pilihan harga jackpot yang bisa anda beli yaitu :100,500,1000 dan 2000(khusus table VIP Keatas) rupiah.

Hadiah dari Multi jackpot system www.isopoker.com

  1. full house x 10 harga jackpot yang anda beli.
      (contoh:anda membeli 1000 maka:1000 X10 = 10.000)
  2. four of kind x 250 harga jackpot yang anda beli
      (contoh:anda membeli 1000 maka:1000 X250 = 250.000)
  3. Straight flush x 1200
      (contoh:anda membeli 1000 maka:1000 X1200 = 1.200.000)
  4. Royal flush x 10000 harga jackpot yang anda beli
      (contoh:anda membeli 1000 maka:1000 X10000 = 10.000.000)
  5. SUPER ROYAL FLUSH x 30000 harga jackpot yang anda beli
      (contoh:anda membeli 1000 maka:1000 X30000 = 30.000.000)

Kondisi kartu

  1. full house adalah kondisi kartu dimana kartu anda dan kartu tengah dengan total 7 kartu bisa mendapatkan nilai 5 kartu dengan kombinasi 1 tris(three of kind) dan 1 pair, contoh 3 kartu 10 dan 2 kartu 5
  2. Four of kind adalah kondisi kartu dimana kartu anda dan kartu tengah dengan total 7 kartu bisa mendapatkan nilai 5 kartu dengan kombinasi 4 kartu yang sama jumlah dan 1 kartu apapun juga contoh anda mendapatkan 4 buah kartu angka 3 dan 1 kartu apapun.
  3. Staright flush adalah kondisi kartu dimana kartu anda dan kartu tengah dengan total 7 kartu bisa mendapatkan nilai 5 kartu dengan kombinasi seri / staright dengan kembang yang sama contoh : urutan kartu dari angka 5, 6, 7, 8 , 9 10 dengan kembang yg sama misalnya as hati
  4. Royal flush adalah kondisi kartu dimana kartu anda dan kartu tengah dengan total 7 kartu bisa mendapatkan nilai 5 kartu dengan kombinasi seri / staright dengan kembang yang sama tetapi kartu tersebut haruslah dimulai dari 10. contoh 10, Queen, Jack, King dan aces dengan kembang yang sama
  5. Super Royal flush adalah kondisi kartu dimana Kedua kartu anda digabung dengan 3 kartu pertama meja haruslah royal flush. contoh kartu anda 10,Queen kembang sama dan 3 kartu pertama meja adalah Jack, King dan aces dengan kembang yang sama

Demikian adalah penjelasan dari Multi Jackpot www.isopoker.com terima kasih dan selamat bermain salam hoki dari kami

Texas Poker Jackpot Winner

TOP SUPER ROYAL FLUSH
No.TanggalNamaPriceWin
125/06 15:24BCD6C48BSuper Royal flush3,000,000
225/06 14:45H99TYOOSuper Royal flush15,000,000
325/06 08:53CAN110Super Royal flush60,000,000
425/06 03:00KKJERBNISuper Royal flush15,000,000
525/06 02:37NIBOR13Super Royal flush30,000,000
TOP ROYAL FLUSH
No.TanggalNamaPriceWin
125/06 15:27L4V3Z1Royal flush1,000,000
225/06 14:55GRAHA12345Royal flush10,000,000
325/06 13:53ANTO54JARoyal flush5,000,000
425/06 10:54DELLA88888Royal flush10,000,000
525/06 10:35FLOW38Royal flush1,000,000
TOP STRAIGHT FLUSH
No.TanggalNamaPriceWin
125/06 15:41AZONE99Straight Flush600,000
225/06 15:40ADAJUGAStraight Flush1,200,000
325/06 15:38DIDIN92Straight Flush120,000
425/06 15:38BEGAYA09Straight Flush120,000
525/06 15:36SITAIN10Straight Flush120,000
LATEST JACKPOT
No.TanggalNamaPriceWin
125/06 15:43N3W77Full House5,000
225/06 15:43H8ZR4GZNP7Full House10,000
325/06 15:43LLVRUR82TNFull House5,000
425/06 15:43AGSOOMFull House1,000
525/06 15:43OTEXSKINFull House10,000
625/06 15:43SD2L9Q5T8CFull House5,000
725/06 15:43CIMBOKEFull House5,000
825/06 15:43BOD0BOD0Full House5,000
925/06 15:43D7B479F0Full House5,000
1025/06 15:43CEBONK16Full House5,000
1125/06 15:43SUCCY17Full House1,000
1225/06 15:43RIEBACKFull House1,000
1325/06 15:43TEMPOIN66Full House5,000
1425/06 15:43MMNUL99Full House10,000
1525/06 15:42IPANK3636Full House5,000
1625/06 15:42EMAN432Full House10,000
1725/06 15:42NIENDY18Full House10,000
1825/06 15:42ANPXT38507Full House5,000
1925/06 15:42NYANG_KUTFull House1,000
2025/06 15:42BONGASFull House10,000
2125/06 15:42ANDRIANSIMFull House10,000
2225/06 15:42AMOY84Full House20,000
2325/06 15:42DAPOETFull House10,000
2425/06 15:42PHOEBESFull House1,000
2525/06 15:42JACKOKYFull House1,000
2625/06 15:42COBAR77Full House10,000
2725/06 15:42DISEL77Full House5,000
2825/06 15:42CD58BD57Full House1,000
2925/06 15:42YUGA22Full House1,000
3025/06 15:42WAKTANG6Full House1,000
3125/06 15:42KATAB13Full House1,000
3225/06 15:42PARKCUY1Full House5,000
3325/06 15:42ACAS89Full House1,000
3425/06 15:42BUYZZZFull House20,000
3525/06 15:42SYAHRISCAFull House5,000
3625/06 15:42E147E5FCFull House10,000
3725/06 15:42NYINGNYINKFull House10,000
3825/06 15:42RAJOWONANGFour Of A Kind25,000
3925/06 15:42INDRA940Full House5,000
4025/06 15:42BACO44Full House1,000
4125/06 15:42JIMBO9999Full House5,000
4225/06 15:42CUBDONFour Of A Kind25,000
4325/06 15:42LEKERS001Full House5,000
4425/06 15:42DODOW1Full House10,000
4525/06 15:42CANONGFull House1,000
4625/06 15:42TSO88Full House5,000
4725/06 15:42J4HANAMMFull House1,000
4825/06 15:42CALLSATOK9Full House10,000
4925/06 15:42KFJFJFJFull House1,000
5025/06 15:42WILLAAJAFull House1,000

Domino Multi Jackpot System

Ikutilah global jackpot yang tersedia di system kami, dengan system jackpot terbaru dan pertama di indonesia, anda dapat membeli jackpot dengan harga 100 rupiah saja dan menangkan hadiahnya hingga puluhan juta rupiah.

Jackpot bukanlah suatu keharusan untuk dibeli, namun kami memberikan suatu fitur tambahan untuk member tercinta dari www.isopoker.com.

Terdapat tiga pilihan harga jackpot yang bisa anda beli yaitu :100,500 dan 1000 rupiah.

Hadiah dari Multi jackpot system www.isopoker.com

  1. Murni Kecil x 50 harga jackpot yang anda beli.
      (contoh:anda membeli 1000 maka:1000 X 50 = 50.000)
  2. Murni Besar x 50 harga jackpot yang anda beli
      (contoh:anda membeli 1000 maka:1000 X 50 = 50.000)
  3. BALAK x 100 harga jackpot yang anda beli
      (contoh:anda membeli 1000 maka:1000 X 100 = 100.000)
  4. ENAM DEWA x 6666 harga jackpot yang anda beli
      (contoh:anda membeli 1000 maka:1000 X 6666 = 6.666.000)

Demikian adalah penjelasan dari Multi Jackpot www.isopoker.com terima kasih dan selamat bermain salam hoki dari kami

Domino Jackpot Winner

TOP ENAM DEWA
No.TanggalNamaPriceWin
125/06 14:06DENNIZ0701murni enam3,333,000
225/06 10:15GISA234murni enam6,666,000
325/06 09:47COAX99murni enam666,600
425/06 05:35SIKEMONmurni enam6,666,000
525/06 05:20RFCAFE77murni enam3,333,000
TOP BALAK
No.TanggalNamaPriceWin
125/06 15:39DENINOVIbalak100,000
225/06 15:38JAIL8888balak50,000
325/06 15:35LINGKAR501balak100,000
425/06 15:34MUAY2010balak100,000
525/06 15:30YEYET_23balak100,000
LATEST JACKPOT
No.TanggalNamaPriceWin
125/06 15:42GRATISmurni kecil25,000
225/06 15:42MYQmurni kecil50,000
325/06 15:41BANGHOKI89murni besar25,000
425/06 15:41DENIS900murni kecil50,000
525/06 15:40WEASRY11murni besar5,000
625/06 15:40VD_5murni besar25,000
725/06 15:40TRUMP30JTmurni kecil50,000
825/06 15:39DENINOVIbalak100,000
925/06 15:39FDCMASP9DSmurni besar50,000
1025/06 15:38JAIL8888balak50,000
1125/06 15:38DOS23murni besar50,000
1225/06 15:38TR1_AD3murni kecil50,000
1325/06 15:37ASHI13murni besar5,000
1425/06 15:36GADUH_MANGmurni kecil50,000
1525/06 15:36K3NYHAYmurni besar25,000
1625/06 15:36HJ07051987murni kecil5,000
1725/06 15:35LINGKAR501balak100,000
1825/06 15:35BALAKKABEHmurni kecil25,000
1925/06 15:34IBON66murni besar50,000
2025/06 15:34MUAY2010balak100,000
2125/06 15:34W_Mmurni besar25,000
2225/06 15:34SNSD008murni kecil25,000
2325/06 15:33GOJEK901murni besar5,000
2425/06 15:33MASTERANUmurni kecil50,000
2525/06 15:32ONEH6666murni besar50,000
2625/06 15:32RHEZAKHYmurni besar50,000
2725/06 15:32EMON168murni besar50,000
2825/06 15:31MIRA74murni kecil25,000
2925/06 15:30YEYET_23balak100,000
3025/06 15:29DEVAN33murni besar5,000
3125/06 15:29BONA_16murni kecil5,000
3225/06 15:27BTK88murni besar50,000
3325/06 15:26KADAL1922murni besar25,000
3425/06 15:25FIRUZZZ22murni kecil25,000
3525/06 15:24TYRION14murni kecil5,000
3625/06 15:24HF6BNJMDTCmurni kecil50,000
3725/06 15:24NONAME128murni kecil25,000
3825/06 15:23YEYET_23balak100,000
3925/06 15:23GOJEK901murni besar5,000
4025/06 15:23DERBI13murni besar5,000
4125/06 15:22AJIBROW09murni besar25,000
4225/06 15:22HF6BNJMDTCmurni kecil50,000
4325/06 15:22THAT077balak100,000
4425/06 15:22ROYAL_86murni besar50,000
4525/06 15:22FENGDUmurni besar50,000
4625/06 15:21STOOM2016murni kecil25,000
4725/06 15:21LUMANGmurni kecil50,000
4825/06 15:20GOKU8888murni kecil50,000
4925/06 15:20CGX29murni kecil25,000
5025/06 15:20LEONARDTmurni kecil5,000

Ceme Multi Jackpot System

Jackpot dilihat dari gabungan kartu pemain dengan kartu bandar. Bandar harus membeli jackpot sebanyak jumlah player yang sedang duduk. Sebagai contoh bila terdapat 3 pemain duduk bermain, dan bandar memutuskan untuk membeli jackpot Rp 1.000, maka pada periode tersebut bandar akan membeli jackpot sebanyak 3xRp1.000 = Rp3.000.

Jackpot bukanlah suatu keharusan untuk dibeli, namun kami memberikan suatu fitur tambahan untuk member tercinta dari www.isopoker.com.

Terdapat tiga pilihan harga jackpot yang bisa anda beli yaitu :100,500 dan 1000 rupiah.

Hadiah dari Multi jackpot system www.isopoker.com

  1. Murni Kecil x 50 harga jackpot yang anda beli.
      (contoh:anda membeli 1000 maka:1000 X 50 = 50.000)
  2. Murni Besar x 50 harga jackpot yang anda beli
      (contoh:anda membeli 1000 maka:1000 X 50 = 50.000)
  3. BALAK x 200 harga jackpot yang anda beli
      (contoh:anda membeli 1000 maka:1000 X 200 = 200.000)
  4. ENAM DEWA x 6666 harga jackpot yang anda beli
      (contoh:anda membeli 1000 maka:1000 X 6666 = 6.666.000)

Demikian adalah penjelasan dari Multi Jackpot www.isopoker.com terima kasih dan selamat bermain salam hoki dari kami

Ceme Jackpot Winner

TOP ENAM DEWA
No.TanggalNamaPriceWin
125/06 15:30NURKHOLISmurni enam6,666,000
225/06 15:21FORBES18murni enam6,666,000
325/06 15:21RIZ83murni enam6,666,000
425/06 15:07CASTANYO24murni enam6,666,000
525/06 15:05PTG19murni enam6,666,000
TOP BALAK
No.TanggalNamaPriceWin
125/06 15:41STROH09balak100,000
225/06 15:41A3456218balak200,000
325/06 15:41ANALISA10balak100,000
425/06 15:40ONIHOKKI1balak100,000
525/06 15:40YUSUFANJIbalak200,000
LATEST JACKPOT
No.TanggalNamaPriceWin
125/06 15:43MPLII0505murni besar5,000
225/06 15:43FINGJAYAmurni kecil5,000
325/06 15:43MANGAP806murni kecil50,000
425/06 15:42FIRST727murni kecil50,000
525/06 15:42TOMGALAUmurni kecil50,000
625/06 15:42BOEDY11murni besar25,000
725/06 15:42RUDI1250murni kecil50,000
825/06 15:4299AA88murni kecil25,000
925/06 15:42NUGRAHA69murni besar50,000
1025/06 15:42UCHLEE88murni besar5,000
1125/06 15:42YOPI24855murni besar50,000
1225/06 15:42RONYSUTEmurni besar50,000
1325/06 15:42ANSORI182murni kecil5,000
1425/06 15:41STROH09balak100,000
1525/06 15:41XSVNSD68UMmurni kecil50,000
1625/06 15:41PUTHULmurni kecil5,000
1725/06 15:41AGUS_1312murni besar50,000
1825/06 15:41A3456218balak200,000
1925/06 15:41ANALISA10balak100,000
2025/06 15:41CHIVAS_69murni besar5,000
2125/06 15:40JOYAYAmurni kecil50,000
2225/06 15:40FERNANDO09murni kecil5,000
2325/06 15:40ONIHOKKI1balak100,000
2425/06 15:40YUSUFANJIbalak200,000
2525/06 15:40DIDIANTOmurni kecil25,000
2625/06 15:40TH3BL0NJ1murni kecil50,000
2725/06 15:40OKOMBURmurni kecil25,000
2825/06 15:39SULTAN233murni besar50,000
2925/06 15:39BALDU29murni besar5,000
3025/06 15:39LEEBOSHmurni besar50,000
3125/06 15:39REY13murni kecil50,000
3225/06 15:39CAPRI_76murni kecil50,000
3325/06 15:39KEWKEW98murni kecil25,000
3425/06 15:39ANJING990murni kecil25,000
3525/06 15:39HAMZAN123murni kecil25,000
3625/06 15:39GANGGA05murni besar5,000
3725/06 15:39NGLENYETmurni besar25,000
3825/06 15:38GONON77murni kecil50,000
3925/06 15:38TIIOJABLAYbalak20,000
4025/06 15:38CF9F852Bmurni kecil25,000
4125/06 15:38MAYDELLMAYbalak20,000
4225/06 15:38AMSIYONGbalak200,000
4325/06 15:38JABRIX27murni kecil50,000
4425/06 15:38NITA0916murni besar50,000
4525/06 15:38MRP07murni besar50,000
4625/06 15:38DLYYmurni besar50,000
4725/06 15:38AMANGTANKmurni besar50,000
4825/06 15:38HANTUZOTmurni kecil5,000
4925/06 15:38HEBERbalak200,000
5025/06 15:38MERRY31murni besar25,000